�������l�o���
Date,Time,MP-1(��Sv/h),MP-2(��Sv/h),MP-3(��Sv/h),MP-4(��Sv/h),MP-5(��Sv/h),MP-6(��Sv/h),MP-7(��Sv/h),MP-8(��Sv/h),����,����(m/s),���J
2019/06/20,00:00,0.742,1.043,0.717,1.292,0.942,0.426,0.737,0.701,�k�k��,5.4,��
2019/06/20,00:10,0.740,1.040,0.716,1.291,0.941,0.424,0.738,0.702,�k�k��,5.4,��
2019/06/20,00:20,0.739,1.044,0.714,1.292,0.940,0.425,0.740,0.703,�k�k��,5.1,��
2019/06/20,00:30,0.739,1.042,0.713,1.292,0.942,0.425,0.736,0.701,�k�k��,4.6,��
2019/06/20,00:40,0.741,1.042,0.715,1.294,0.942,0.426,0.737,0.701,�k�k��,4.9,��
2019/06/20,00:50,0.739,1.043,0.714,1.291,0.942,0.425,0.736,0.702,�k�k��,4.7,��
2019/06/20,01:00,0.740,1.044,0.715,1.290,0.942,0.426,0.737,0.703,�k�k��,4.9,��
2019/06/20,01:10,0.741,1.040,0.716,1.294,0.942,0.426,0.737,0.703,�k�k��,4.6,��
2019/06/20,01:20,0.740,1.041,0.714,1.291,0.942,0.427,0.738,0.700,�k�k��,4.3,��
2019/06/20,01:30,0.742,1.042,0.715,1.291,0.943,0.428,0.736,0.702,�k�k��,4.0,��
2019/06/20,01:40,0.741,1.044,0.716,1.294,0.944,0.425,0.737,0.702,�k�k��,4.2,��
2019/06/20,01:50,0.740,1.043,0.716,1.294,0.944,0.425,0.737,0.701,�k�k��,4.2,��
2019/06/20,02:00,0.742,1.044,0.716,1.294,0.943,0.426,0.737,0.702,�k�k��,5.2,��
2019/06/20,02:10,0.742,1.044,0.716,1.292,0.944,0.425,0.737,0.703,�k�k��,6.2,��
2019/06/20,02:20,0.740,1.044,0.716,1.295,0.942,0.426,0.738,0.704,�k�k��,5.3,��
2019/06/20,02:30,0.741,1.046,0.716,1.294,0.942,0.425,0.739,0.704,�k�k��,6.3,��
2019/06/20,02:40,0.742,1.042,0.713,1.295,0.942,0.426,0.737,0.701,�k,5.9,��
2019/06/20,02:50,0.741,1.043,0.715,1.294,0.941,0.424,0.739,0.702,�k,5.8,��
2019/06/20,03:00,0.741,1.043,0.714,1.296,0.942,0.427,0.737,0.702,�k�k��,5.8,��
2019/06/20,03:10,0.740,1.044,0.719,1.294,0.943,0.428,0.738,0.703,�k�k��,5.6,��
2019/06/20,03:20,0.741,1.044,0.715,1.294,0.944,0.426,0.737,0.701,�k�k��,5.7,��
2019/06/20,03:30,0.740,1.044,0.716,1.293,0.944,0.425,0.737,0.703,�k,6.1,��
2019/06/20,03:40,0.742,1.042,0.718,1.294,0.943,0.428,0.738,0.703,�k,5.6,��
2019/06/20,03:50,0.739,1.047,0.716,1.295,0.944,0.426,0.739,0.704,�k,4.9,��
2019/06/20,04:00,0.741,1.046,0.716,1.294,0.945,0.426,0.740,0.703,�k�k��,5.5,��
2019/06/20,04:10,0.740,1.044,0.716,1.293,0.943,0.426,0.739,0.701,�k�k��,5.7,��
2019/06/20,04:20,0.740,1.045,0.717,1.294,0.943,0.426,0.738,0.702,�k�k��,5.1,��
2019/06/20,04:30,0.742,1.045,0.716,1.292,0.942,0.427,0.739,0.704,�k�k��,5.3,��
2019/06/20,04:40,0.739,1.043,0.717,1.294,0.943,0.427,0.739,0.702,�k�k��,5.3,��
2019/06/20,04:50,0.741,1.043,0.716,1.294,0.942,0.426,0.739,0.701,�k�k��,5.4,��
2019/06/20,05:00,0.741,1.041,0.714,1.296,0.942,0.426,0.740,0.704,�k�k��,5.8,��
2019/06/20,05:10,0.740,1.044,0.716,1.294,0.945,0.428,0.740,0.702,�k�k��,6.6,��
2019/06/20,05:20,0.741,1.043,0.716,1.297,0.944,0.426,0.739,0.703,�k�k��,6.7,��
2019/06/20,05:30,0.741,1.044,0.716,1.296,0.945,0.425,0.738,0.702,�k�k��,6.5,��
2019/06/20,05:40,0.741,1.042,0.716,1.296,0.943,0.425,0.738,0.703,�k�k��,6.6,��
2019/06/20,05:50,0.740,1.044,0.717,1.296,0.943,0.425,0.738,0.704,�k�k��,6.4,��
2019/06/20,06:00,0.743,1.045,0.716,1.296,0.944,0.424,0.738,0.705,�k�k��,6.1,��
2019/06/20,06:10,0.741,1.045,0.717,1.294,0.944,0.426,0.738,0.703,�k�k��,5.4,��
2019/06/20,06:20,0.741,1.044,0.716,1.295,0.943,0.425,0.739,0.704,�k�k��,4.4,��
2019/06/20,06:30,0.742,1.045,0.717,1.294,0.944,0.425,0.739,0.703,�k�k��,3.7,��
2019/06/20,06:40,0.742,1.045,0.717,1.299,0.945,0.425,0.739,0.704,�k�k��,3.4,��
2019/06/20,06:50,0.740,1.043,0.719,1.296,0.946,0.424,0.740,0.701,�k�k��,3.5,��
2019/06/20,07:00,0.739,1.041,0.717,1.296,0.946,0.425,0.739,0.701,�k�k��,3.8,��
2019/06/20,07:10,0.739,1.044,0.716,1.296,0.942,0.426,0.738,0.701,�k�k��,4.0,��
2019/06/20,07:20,0.738,1.040,0.717,1.297,0.943,0.425,0.737,0.703,�k�k��,4.0,��
2019/06/20,07:30,0.740,1.039,0.717,1.299,0.944,0.424,0.739,0.702,�k,3.5,��
2019/06/20,07:40,0.740,1.040,0.716,1.298,0.943,0.425,0.741,0.703,�k,4.4,��
2019/06/20,07:50,0.740,1.040,0.716,1.297,0.944,0.424,0.740,0.700,�k�k��,4.1,��
2019/06/20,08:00,0.738,1.040,0.717,1.298,0.943,0.424,0.740,0.700,�k�k��,3.9,��
2019/06/20,08:10,0.740,1.045,0.716,1.298,0.944,0.424,0.740,0.704,�k�k��,3.4,��
2019/06/20,08:20,0.742,1.040,0.716,1.297,0.943,0.423,0.741,0.702,�k��,3.5,��
2019/06/20,08:30,0.741,1.042,0.716,1.301,0.944,0.422,0.739,0.702,�k�k��,4.3,��
2019/06/20,08:40,0.742,1.041,0.715,1.298,0.943,0.424,0.740,0.702,�k�k��,3.8,��
2019/06/20,08:50,0.741,1.043,0.716,1.299,0.943,0.424,0.742,0.701,�k��,3.9,��
2019/06/20,09:00,0.745,1.040,0.716,1.298,0.946,0.424,0.741,0.701,�k�k��,3.5,��
2019/06/20,09:10,0.741,1.041,0.715,1.300,0.943,0.425,0.741,0.701,�k�k��,4.0,��
2019/06/20,09:20,0.743,1.039,0.718,1.300,0.945,0.425,0.742,0.700,�k,2.3,��
2019/06/20,09:30,0.744,1.043,0.715,1.298,0.948,0.425,0.741,0.703,�k�k��,3.5,��
2019/06/20,09:40,0.743,1.044,0.714,1.301,0.946,0.424,0.742,0.702,�k�k��,2.6,��
2019/06/20,09:50,0.746,1.045,0.720,1.297,0.948,0.425,0.741,0.702,�k�k��,4.1,��
2019/06/20,10:00,0.745,1.046,0.719,1.302,0.948,0.425,0.742,0.703,�k�k��,4.2,��
2019/06/20,10:10,0.746,1.047,0.717,1.301,0.946,0.425,0.741,0.702,�k,3.7,��
2019/06/20,10:20,0.746,1.048,0.719,1.301,0.951,0.427,0.743,0.703,�k,3.8,��
2019/06/20,10:30,0.745,1.046,0.720,1.300,0.949,0.425,0.743,0.705,�k�k��,3.6,��
2019/06/20,10:40,0.745,1.048,0.721,1.301,0.949,0.426,0.742,0.703,�k�k��,3.8,��
2019/06/20,10:50,0.747,1.050,0.718,1.301,0.951,0.423,0.743,0.704,�k�k��,4.6,��
2019/06/20,11:00,0.745,1.051,0.720,1.301,0.950,0.425,0.743,0.704,�k��,4.7,��
2019/06/20,11:10,0.746,1.049,0.719,1.301,0.952,0.426,0.742,0.705,�k��,4.4,��
2019/06/20,11:20,0.747,1.053,0.718,1.302,0.950,0.426,0.743,0.703,�k��,4.8,��
2019/06/20,11:30,0.749,1.054,0.720,1.301,0.952,0.426,0.743,0.705,�k��,5.0,��
2019/06/20,11:40,0.748,1.054,0.721,1.300,0.954,0.427,0.742,0.705,�k�k��,5.9,��
2019/06/20,11:50,0.748,1.055,0.720,1.304,0.953,0.427,0.743,0.705,�k�k��,6.0,��
2019/06/20,12:00,0.748,1.057,0.723,1.302,0.953,0.427,0.744,0.703,�k�k��,6.0,��
2019/06/20,12:10,0.748,1.056,0.720,1.302,0.954,0.426,0.743,0.704,�k�k��,5.8,��
2019/06/20,12:20,0.749,1.055,0.722,1.305,0.955,0.428,0.742,0.704,�k�k��,6.1,��
2019/06/20,12:30,0.749,1.056,0.722,1.306,0.955,0.427,0.743,0.704,�k�k��,6.6,��
2019/06/20,12:40,0.750,1.058,0.723,1.306,0.956,0.427,0.743,0.705,�k�k��,5.3,��
2019/06/20,12:50,0.750,1.059,0.723,1.305,0.957,0.426,0.743,0.705,�k�k��,4.8,��
2019/06/20,13:00,0.747,1.060,0.724,1.304,0.958,0.429,0.745,0.705,�k��,4.9,��
2019/06/20,13:10,0.750,1.058,0.722,1.305,0.956,0.428,0.745,0.706,�k��,4.9,��
2019/06/20,13:20,0.750,1.058,0.723,1.305,0.958,0.429,0.744,0.706,�k��,3.9,��
2019/06/20,13:30,0.751,1.058,0.723,1.306,0.959,0.429,0.743,0.706,�k��,4.0,��
2019/06/20,13:40,0.749,1.056,0.723,1.307,0.959,0.428,0.743,0.705,�k,3.1,��
2019/06/20,13:50,0.751,1.061,0.722,1.307,0.960,0.427,0.744,0.705,�k��,3.3,��
2019/06/20,14:00,0.748,1.059,0.724,1.307,0.958,0.429,0.744,0.704,�k�k��,3.8,��
2019/06/20,14:10,0.749,1.060,0.723,1.308,0.962,0.427,0.744,0.706,�k��,4.1,��
2019/06/20,14:20,0.755,1.062,0.722,1.308,0.960,0.428,0.742,0.705,�k�k��,5.0,��
2019/06/20,14:30,0.750,1.061,0.722,1.308,0.960,0.428,0.745,0.705,�k��,4.3,��
2019/06/20,14:40,0.751,1.060,0.725,1.310,0.961,0.430,0.744,0.706,�k�k��,4.7,��
2019/06/20,14:50,0.751,1.061,0.723,1.309,0.961,0.427,0.744,0.706,�k�k��,4.6,��
2019/06/20,15:00,0.752,1.064,0.725,1.306,0.960,0.429,0.742,0.705,�k�k��,4.6,��
2019/06/20,15:10,0.752,1.064,0.726,1.310,0.960,0.428,0.744,0.705,�k�k��,3.8,��
2019/06/20,15:20,0.750,1.063,0.723,1.308,0.962,0.429,0.744,0.705,�k��,3.4,��
2019/06/20,15:30,0.751,1.064,0.725,1.311,0.960,0.429,0.745,0.705,�k�k��,3.4,��
2019/06/20,15:40,0.751,1.063,0.725,1.308,0.962,0.429,0.743,0.706,�k�k��,3.9,��
2019/06/20,15:50,0.750,1.063,0.725,1.312,0.962,0.430,0.745,0.706,�k�k��,2.6,��
2019/06/20,16:00,0.751,1.064,0.724,1.309,0.963,0.429,0.745,0.706,�k��,3.2,��
2019/06/20,16:10,0.753,1.062,0.723,1.310,0.960,0.427,0.743,0.705,�k��,3.0,��
2019/06/20,16:20,0.751,1.066,0.722,1.312,0.962,0.428,0.744,0.706,�k�k��,3.8,��
2019/06/20,16:30,0.752,1.066,0.724,1.311,0.961,0.428,0.745,0.704,�k�k��,4.1,��
2019/06/20,16:40,0.753,1.067,0.725,1.309,0.964,0.429,0.745,0.705,�k��,3.2,��
2019/06/20,16:50,0.754,1.067,0.723,1.311,0.961,0.429,0.744,0.704,�k�k��,3.0,��
2019/06/20,17:00,0.752,1.066,0.723,1.310,0.961,0.428,0.743,0.707,�k�k��,2.9,��
2019/06/20,17:10,0.751,1.067,0.724,1.310,0.963,0.429,0.743,0.705,�k,2.3,��
2019/06/20,17:20,0.750,1.067,0.724,1.307,0.961,0.428,0.743,0.706,�k�k��,2.2,��
2019/06/20,17:30,0.751,1.067,0.723,1.314,0.961,0.428,0.743,0.705,�k�k��,2.0,��
2019/06/20,17:40,0.751,1.068,0.723,1.313,0.959,0.428,0.745,0.706,�k�k��,1.7,��
2019/06/20,17:50,0.750,1.066,0.726,1.311,0.964,0.428,0.744,0.705,�k�k��,2.0,��
2019/06/20,18:00,0.750,1.070,0.725,1.313,0.961,0.430,0.744,0.706,�k�k��,1.1,��
2019/06/20,18:10,0.750,1.069,0.727,1.315,0.961,0.430,0.742,0.705,�k�k��,1.2,��
2019/06/20,18:20,0.750,1.069,0.727,1.315,0.959,0.430,0.743,0.706,�k�k��,1.2,��
2019/06/20,18:30,0.751,1.068,0.727,1.315,0.962,0.429,0.744,0.707,�k�k��,1.7,��
2019/06/20,18:40,0.749,1.068,0.727,1.315,0.961,0.429,0.745,0.706,�k,2.0,��
2019/06/20,18:50,0.749,1.070,0.727,1.316,0.962,0.428,0.744,0.706,�k�k��,2.3,��
2019/06/20,19:00,0.750,1.070,0.729,1.317,0.963,0.430,0.743,0.706,�k�k��,2.3,��
2019/06/20,19:10,0.751,1.072,0.728,1.314,0.963,0.430,0.744,0.706,�k,1.4,��
2019/06/20,19:20,0.755,1.071,0.729,1.314,0.965,0.429,0.743,0.706,�k�k��,0.9,��
2019/06/20,19:30,0.751,1.070,0.730,1.318,0.965,0.431,0.744,0.706,�k,0.9,��
2019/06/20,19:40,0.750,1.069,0.728,1.316,0.964,0.430,0.745,0.705,�k�k��,1.5,��
2019/06/20,19:50,0.752,1.072,0.727,1.316,0.964,0.431,0.746,0.708,�k�k��,0.8,��
2019/06/20,20:00,0.751,1.068,0.728,1.312,0.963,0.429,0.744,0.709,�k��,0.9,��
2019/06/20,20:10,0.753,1.072,0.727,1.317,0.966,0.429,0.744,0.707,��,0.6,��
2019/06/20,20:20,0.752,1.071,0.728,1.315,0.964,0.430,0.746,0.708,�k��,1.5,��
2019/06/20,20:30,0.753,1.071,0.728,1.313,0.963,0.429,0.746,0.706,�k,1.2,��
2019/06/20,20:40,0.752,1.071,0.727,1.313,0.964,0.430,0.746,0.708,�k�k��,0.8,��
2019/06/20,20:50,0.753,1.071,0.728,1.315,0.964,0.431,0.746,0.706,���k��,1.4,��
2019/06/20,21:00,0.752,1.071,0.727,1.315,0.962,0.430,0.744,0.707,�k�k��,1.4,��
2019/06/20,21:10,0.753,1.070,0.728,1.316,0.965,0.430,0.746,0.707,�k�k��,0.9,��
2019/06/20,21:20,0.753,1.071,0.728,1.314,0.964,0.431,0.744,0.710,�k�k��,1.7,��
2019/06/20,21:30,0.752,1.071,0.727,1.313,0.964,0.432,0.746,0.709,�k��,1.7,��
2019/06/20,21:40,0.753,1.070,0.726,1.314,0.962,0.432,0.746,0.710,�k,2.0,��
2019/06/20,21:50,0.750,1.072,0.728,1.315,0.963,0.432,0.747,0.708,�k�k��,1.7,��
2019/06/20,22:00,0.750,1.069,0.727,1.312,0.964,0.429,0.745,0.708,�k�k��,2.3,��
2019/06/20,22:10,0.751,1.071,0.727,1.313,0.962,0.428,0.744,0.707,�k,2.2,��
2019/06/20,22:20,0.751,1.069,0.726,1.314,0.964,0.430,0.746,0.708,�k,1.5,��
2019/06/20,22:30,0.750,1.069,0.728,1.314,0.962,0.430,0.746,0.708,�k�k��,1.4,��
2019/06/20,22:40,0.752,1.071,0.730,1.314,0.961,0.430,0.745,0.709,�k�k��,0.9,��
2019/06/20,22:50,0.752,1.069,0.727,1.313,0.963,0.430,0.744,0.706,�k,1.4,��
2019/06/20,23:00,0.751,1.067,0.728,1.312,0.964,0.430,0.746,0.706,�k�k��,0.8,��
2019/06/20,23:10,0.754,1.071,0.726,1.311,0.964,0.429,0.745,0.708,�k�k��,1.5,��
2019/06/20,23:20,0.752,1.070,0.727,1.313,0.963,0.429,0.743,0.708,�k�k��,1.7,��
2019/06/20,23:30,0.750,1.068,0.729,1.315,0.961,0.429,0.743,0.706,�k�k��,1.2,��
2019/06/20,23:40,0.753,1.069,0.726,1.316,0.962,0.430,0.746,0.709,�k�k��,1.2,��
2019/06/20,23:50,0.751,1.069,0.728,1.314,0.962,0.429,0.744,0.707,�k��,1.1,��
